FW4072 Weather Reports


Display with metric or nautical units.
time (UTC)temp
F
wind
direction
speed
MPH
gust
MPH
rain 1hr
in
rain 24hr
in
rain mn
in
humidity
%
barometer
mb
20260505140335 83 135 1.0 2.0 0.00 0.00 0.00 1013.9
20260505124249 87 135 1.0 2.0 0.00 0.00 0.00 1014.6
20260505123328 87 0.0 2.0 0.00 0.00 0.00 1014.6
20260505122428 86 0.0 1.0 0.00 0.00 0.00 1014.7
20260505121527 88 0.0 1.0 0.00 0.00 0.00 1014.6
20260505120628 88 0.0 1.0 0.00 0.00 0.00 1014.7
20260505115746 89 0.0 1.0 0.00 0.00 0.00 1014.6
20260505114845 88 135 1.0 4.0 0.00 0.00 0.00 1014.5
20260505113026 88 158 1.0 2.0 0.00 0.00 0.00 1014.6
20260505112125 87 135 1.0 2.0 0.00 0.00 0.00 1014.5
20260505111223 87 158 1.0 3.0 0.00 0.00 0.00 1014.4
20260505110322 85 113 1.0 3.0 0.00 0.00 0.00 1014.3
20260505101820 86 0.0 2.0 0.00 0.00 0.00 1014.6
20260505100018 86 0.0 1.0 0.00 0.00 0.00 1014.8
20260505095137 84 0.0 2.0 0.00 0.00 0.00 1014.7
20260505094217 84 0.0 2.0 0.00 0.00 0.00 1014.7
20260505093336 83 135 2.0 3.0 0.00 0.00 0.00 1015.0
20260505092415 86 135 1.0 3.0 0.00 0.00 0.00 1014.9
20260505091515 86 158 1.0 2.0 0.00 0.00 0.00 1015.0
20260505090614 86 0.0 2.0 0.00 0.00 0.00 1015.1
20260505085643 84 135 1.0 3.0 0.00 0.00 0.00 1015.2
20260505084744 83 0.0 1.0 0.00 0.00 0.00 1015.2
20260505083841 81 135 1.0 2.0 0.00 0.00 0.00 1015.4
20260505082041 81 135 1.0 3.0 0.00 0.00 0.00 1015.3
20260505081200 80 0.0 1.0 0.00 0.00 0.00 1015.2
20260505080239 81 135 1.0 4.0 0.00 0.00 0.00 1015.3
20260505075338 79 0.0 2.0 0.00 0.00 0.00 11 1015.3
20260505074438 77 0.0 2.0 0.00 0.00 0.00 14 1015.2
20260505073557 76 1.0 2.0 0.00 0.00 0.00 15 1015.3
20260505072638 77 135 1.0 2.0 0.00 0.00 0.00 15 1015.4
20260505071736 76 0.0 1.0 0.00 0.00 0.00 20 1015.4
20260505070835 73 0.0 2.0 0.00 0.00 0.00 26 1015.5
20260505065036 71 0.0 2.0 0.00 0.00 0.00 30 1015.4
20260505064134 70 0.0 1.0 0.00 0.00 0.00 33 1015.4
20260505063233 69 135 1.0 2.0 0.00 0.00 0.00 34 1015.5
20260505062334 69 0.0 2.0 0.00 0.00 0.00 35 1015.4
20260505061432 67 0.0 2.0 0.00 0.00 0.00 38 1015.4
20260505060534 66 0.0 2.0 0.00 0.00 0.00 41 1015.4
20260505055652 64 0.0 1.0 0.00 0.00 0.00 44 1015.2
20260505054750 64 1.0 2.0 0.00 0.00 0.00 44 1015.4
20260505053849 62 0.0 2.0 0.00 0.00 0.00 50 1015.5
20260505052028 60 1.0 2.0 0.00 0.00 0.00 54 1015.4
20260505051148 58 0.0 2.0 0.00 0.00 0.00 57 1015.5
20260505050227 56 0.0 0.0 0.00 0.00 0.00 61 1015.4
20260505041724 49 0.0 1.0 0.00 0.00 0.00 77 1015.3
20260505040823 47 0.0 1.0 0.00 0.00 0.00 79 1015.5
20260505035042 46 0.0 0.0 0.00 0.00 0.00 79 1015.4
20260505034121 46 0.0 1.0 0.00 0.00 0.00 79 1015.5
20260505033222 46 0.0 0.0 0.00 0.00 0.00 80 1015.5
20260505032321 45 0.0 0.0 0.00 0.00 0.00 80 1015.4
20260505031500 44 0.0 0.0 0.00 0.00 0.00 79 1015.4
20260505030538 44 0.0 0.0 0.00 0.00 0.00 78 1015.2
20260505025618 44 0.0 0.0 0.00 0.00 0.00 78 1015.1
20260505024717 44 0.0 0.0 0.00 0.00 0.00 77 1015.1
20260505023818 45 0.0 0.0 0.00 0.00 0.00 77 1015.1
20260505022015 45 0.0 1.0 0.00 0.00 0.00 77 1015.3
20260505021116 45 0.0 0.0 0.00 0.00 0.00 77 1015.2
20260505020205 45 0.0 0.0 0.00 0.00 0.00 77 1015.0
20260505015243 45 0.0 0.0 0.00 0.00 0.00 75 1015.1
20260505014342 45 0.0 0.0 0.00 0.00 0.00 75 1015.0
20260505013442 45 0.0 0.0 0.00 0.00 0.00 74 1015.1
20260505012541 45 0.0 0.0 0.00 0.00 0.00 74 1015.1
20260505011640 46 0.0 0.0 0.00 0.00 0.00 74 1015.0
20260505010740 46 0.0 0.0 0.00 0.00 0.00 74 1015.0
20260505005839 46 0.0 1.0 0.00 0.00 0.00 73 1014.9
20260505004038 46 0.0 0.0 0.00 0.00 0.00 72 1014.8
20260505003137 46 0.0 0.0 0.00 0.00 0.00 72 1014.9
20260505002236 47 0.0 0.0 0.00 0.00 0.00 71 1015.0
20260505001336 47 0.0 1.0 0.00 0.00 0.00 71 1015.0
20260505000435 47 0.0 1.0 0.00 0.00 0.00 71 1015.0
20260504235556 47 0.0 1.0 0.00 0.00 0.00 71 1015.0
20260504234634 48 0.0 1.0 0.00 0.00 0.00 70 1015.1
20260504233735 48 0.0 1.0 0.00 0.00 0.00 69 1015.2
20260504232832 48 0.0 0.0 0.00 0.00 0.00 68 1015.3
20260504231032 48 0.0 1.0 0.00 0.00 0.00 68 1015.2
20260504230131 48 0.0 2.0 0.00 0.00 0.00 67 1015.3
20260504225230 49 0.0 0.0 0.00 0.00 0.00 67 1015.3
20260504224330 49 0.0 0.0 0.00 0.00 0.00 66 1015.4
20260504223449 49 0.0 0.0 0.00 0.00 0.00 65 1015.2
20260504222528 50 0.0 0.0 0.00 0.00 0.00 64 1015.2
20260504221628 50 0.0 0.0 0.00 0.00 0.00 63 1015.1
20260504220727 50 0.0 0.0 0.00 0.00 0.00 62 1015.2
20260504215847 51 0.0 0.0 0.00 0.00 0.00 60 1015.2
20260504214026 51 0.0 0.0 0.00 0.00 0.00 59 1015.2
20260504213125 52 0.0 1.0 0.00 0.00 0.00 58 1015.1
20260504212226 52 0.0 0.0 0.00 0.00 0.00 57 1015.1
20260504211324 52 0.0 0.0 0.00 0.00 0.00 55 1015.2
20260504210424 53 0.0 0.0 0.00 0.00 0.00 54 1015.2
20260504205522 53 0.0 1.0 0.00 0.00 0.00 53 1015.2
20260504204622 54 0.0 0.0 0.00 0.00 0.00 51 1015.1
20260504203721 54 0.0 0.0 0.00 0.00 0.00 50 1015.1
20260504202820 55 0.0 2.0 0.00 0.00 0.00 48 1015.2
20260504201019 55 0.0 0.0 0.00 0.00 0.00 46 1015.2
20260504200119 56 0.0 1.0 0.00 0.00 0.00 45 1015.0
20260504195218 56 0.0 1.0 0.00 0.00 0.00 44 1015.1
20260504194338 56 0.0 1.0 0.00 0.00 0.00 43 1015.0
20260504193417 57 0.0 0.0 0.00 0.00 0.00 41 1015.0
20260504192516 58 0.0 2.0 0.00 0.00 0.00 40 1015.1
20260504191615 58 0.0 1.0 0.00 0.00 0.00 38 1015.1
20260504190714 59 0.0 0.0 0.00 0.00 0.00 37 1015.0
20260504185855 60 0.0 2.0 0.00 0.00 0.00 35 1014.9
20260504184915 60 0.0 1.0 0.00 0.00 0.00 33 1014.8
20260504183112 61 0.0 1.0 0.00 0.00 0.00 32 1014.8
20260504182211 62 0.0 1.0 0.00 0.00 0.00 30 1014.7
20260504181311 63 0.0 1.0 0.00 0.00 0.00 28 1014.8
20260504180410 64 0.0 1.0 0.00 0.00 0.00 25 1014.7
20260504175510 64 135 1.0 2.0 0.00 0.00 0.00 23 1014.6
20260504174609 65 0.0 2.0 0.00 0.00 0.00 21 1014.6
20260504173708 66 0.0 1.0 0.00 0.00 0.00 19 1014.4
20260504172807 67 0.0 2.0 0.00 0.00 0.00 17 1014.3
20260504171908 69 0.0 1.0 0.00 0.00 0.00 14 1014.2
20260504170106 70 0.0 1.0 0.00 0.00 0.00 11 1014.1
20260504150358 74 113 1.0 3.0 0.00 0.00 0.00 1013.9